Change the Weather History Date:

Sunday, September 2, 2012

  Actual Average Record
Temperature  
Mean Temperature 81 °F 76 °F  
Max Temperature 90 °F 86 °F 100 °F (1912)
Min Temperature 71 °F 66 °F 50 °F (1887)
Degree Days  
Heating Degree Days 0 0  
Month to date heating degree days 0 0  
Since 1 July heating degree days 0 0  
Cooling Degree Days 16 11  
Month to date cooling degree days 33 22  
Year to date cooling degree days 1599 1457  
Growing Degree Days 30 (Base 50)    
Moisture  
Dew Point 71 °F    
Average Humidity 73    
Maximum Humidity 93    
Minimum Humidity 52    
Precipitation  
Precipitation 0.02 in 0.13 in 1.59 in (1938)
Month to date precipitation 0.02 0.25  
Year to date precipitation 27.08 32.76  
Snow  
Snow 0.00 in 0.00 in 0.00 in ()
Month to date snowfall 0.0 0.0  
Since 1 July snowfall T 0.0  
Since 1 September snowfall 0.0 0.0  
Snow Depth 0.00 in    
Sea Level Pressure  
Sea Level Pressure 29.99 in    
Wind  
Wind Speed 4 mph (SW)    
Max Wind Speed 16 mph    
Max Gust Speed 22 mph    
Visibility 10 miles    
Events Rain , Thunderstorm    
T = Trace of Precipitation, MM = Missing Value Source: NWS Daily Summary

Daily Weather History Graph

Daily Weather History Graph

Search for Another Location

Airport or City:

Trip Planner

Search our weather history database for the weather conditions in past years. The results will help you decide how hot, cold, wet, or windy it might be!

Date:

Astronomy

Sep. 02, 2012 Rise Set
Actual Time 7:02 AM EDT 7:53 PM EDT
Civil Twilight 6:37 AM EDT 8:19 PM EDT
Nautical Twilight 6:06 AM EDT 8:49 PM EDT
Astronomical Twilight 5:35 AM EDT 9:20 PM EDT
Moon 8:49 PM EDT (9/2) 9:02 AM EDT (9/2)
Length of Visible Light 13h 42m
Length of Day
12h 50m
Waning Gibbous, 95% of the Moon is Illuminated
Sep 2
Waning Gibbous
Sep 8
Last Quarter
Sep 15
New
Sep 22
First Quarter
Sep 29
Full

Hourly Weather History & Observations

Time (EDT) Temp. Heat Index Dew Point Humidity Pressure Visibility Wind Dir Wind Speed Gust Speed Precip Events Conditions
12:53 AM 75.0 °F - 71.1 °F 87% 30.06 in 10.0 mi ENE 3.5 mph - N/A   Partly Cloudy
1:53 AM 73.9 °F - 71.1 °F 91% 30.05 in 10.0 mi Calm Calm - N/A   Clear
2:53 AM 73.0 °F - 71.1 °F 93% 30.03 in 10.0 mi Calm Calm - N/A   Clear
3:53 AM 73.0 °F - 71.1 °F 93% 30.02 in 10.0 mi Calm Calm - N/A   Clear
4:53 AM 71.1 °F - 69.1 °F 93% 30.00 in 6.0 mi Calm Calm - N/A   Clear
5:53 AM 72.0 °F - 70.0 °F 93% 30.01 in 9.0 mi Calm Calm - N/A   Clear
6:53 AM 71.1 °F - 69.1 °F 93% 30.01 in 10.0 mi Calm Calm - N/A   Clear
7:53 AM 72.0 °F - 70.0 °F 93% 30.02 in 10.0 mi Calm Calm - N/A   Clear
8:53 AM 77.0 °F - 71.6 °F 83% 30.07 in 10.0 mi SW 4.6 mph - N/A   Clear
9:53 AM 82.0 °F 86.7 °F 72.0 °F 71% 30.03 in 10.0 mi Variable 4.6 mph - N/A   Clear
10:53 AM 86.0 °F 92.2 °F 72.0 °F 63% 30.04 in 10.0 mi SW 8.1 mph - N/A   Clear
11:53 AM 87.1 °F 92.0 °F 70.0 °F 57% 30.02 in 10.0 mi SW 6.9 mph - N/A   Clear
12:53 PM 89.1 °F 93.7 °F 69.1 °F 52% 29.99 in 10.0 mi WSW 11.5 mph - N/A   Partly Cloudy
1:53 PM 88.0 °F 92.9 °F 70.0 °F 55% 29.98 in 10.0 mi WSW 8.1 mph - N/A   Clear
2:23 PM 80.6 °F 84.6 °F 71.6 °F 74% 30.01 in 10.0 mi West 8.1 mph - 0.00 in Rain , Thunderstorm Light Rain
2:53 PM 82.0 °F 86.3 °F 71.1 °F 69% 29.98 in 10.0 mi West 8.1 mph - 0.00 in Rain , Thunderstorm Light Thunderstorms and Rain
3:38 PM 78.8 °F - 71.6 °F 78% 30.00 in 10.0 mi South 6.9 mph - 0.00 in Rain Light Rain
3:53 PM 79.0 °F - 71.1 °F 77% 29.96 in 10.0 mi South 8.1 mph - 0.00 in   Partly Cloudy
4:53 PM 81.0 °F 84.9 °F 71.1 °F 72% 29.94 in 10.0 mi SW 9.2 mph - N/A   Clear
5:53 PM 82.0 °F 85.5 °F 69.1 °F 65% 29.93 in 10.0 mi SW 4.6 mph - N/A   Clear
6:53 PM 80.1 °F 83.6 °F 71.1 °F 74% 29.93 in 10.0 mi SW 3.5 mph - N/A   Clear
7:53 PM 77.0 °F - 71.1 °F 82% 29.95 in 10.0 mi South 4.6 mph - N/A   Clear
8:53 PM 75.0 °F - 71.1 °F 87% 29.96 in 10.0 mi SSW 3.5 mph - N/A   Clear
9:53 PM 73.9 °F - 71.1 °F 91% 29.96 in 10.0 mi Calm Calm - N/A   Clear
10:53 PM 73.9 °F - 71.1 °F 91% 29.97 in 10.0 mi Calm Calm - N/A   Partly Cloudy
11:53 PM 73.0 °F - 71.1 °F 93% 29.97 in 10.0 mi Calm Calm - N/A   Scattered Clouds